Вернуться в каталог

ARIANE 5 R/B

АктивенHEO
NORAD 40665·ROCKET BODY·🇫🇷 France

Запущен May 27, 2015 с Guiana Space Centre

Loading…

Ближайшие Пролёты (ближайшие 24 часа)

TLE

СвежийSource: Space-Track

Эпоха: Sep 14, 2026, 10:24 UTC

1 40665U 15026C   26257.43379168  .00003118  00000-0  59027-3 0  9997
2 40665   3.7987 286.7699 6917907  11.9450 358.5298  2.75627098102440

Отслеживайте ARIANE 5 R/B в реальном времени с AllMySat

Download on the App Store